Temperature
19 19 19 19 19 19 19 19 19 19 19 19 18 18 18 18 18 18 18 18 18 17 17 17 17 17 17 17 17 17 16 16 16 16 16 16 16 16 16 16 16 16 16
19 19 19 19 19 19 19 19 19 19 19 18 18 18 18 18 18 18 18 18 18 17 17 17 17 17 17 17 17 17 16 16 16 16 16 16 16 16 16 16 16 16 16
19 19 19 19 19 19 19 19 19 19 19 19 18 18 18 18 18 18 18 18 18 18 17 17 17 17 17 17 16 16 16 16 16 16 16 16 16 16 16 16 16 16 16
19 19 19 19 19 19 19 19 19 19 19 19 19 18 18 18 18 18 18 18 18 18 17 17 17 17 17 17 17 16 16 16 16 16 16 16 16 16 16 16 16 16 16
19 19 19 19 19 19 19 19 19 19 19 19 19 18 18 18 18 18 18 18 18 18 17 17 17 17 17 17 17 17 17 16 16 16 16 16 16 16 16 16 16 15 15
19 19 19 19 19 19 19 19 19 19 19 19 19 18 18 18 18 18 18 18 18 18 17 17 17 17 17 17 17 16 16 16 16 16 16 16 16 16 16 16 16 15 15
19 19 19 19 19 19 19 19 19 19 19 19 19 18 18 18 18 18 18 18 18 18 18 17 17 17 17 17 17 16 16 16 16 16 16 16 16 16 16 16 15 15 15
19 19 19 19 19 19 19 19 19 19 19 18 19 18 18 18 18 18 18 18 18 18 18 17 17 17 17 17 17 17 16 16 16 16 16 16 16 16 16 16 15 15 15
19 19 19 19 19 19 19 19 19 19 19 19 18 18 18 18 18 18 18 18 18 18 18 18 17 17 17 17 17 17 17 16 16 16 16 16 16 16 15 15 15 15 15
19 19 19 19 19 19 19 19 19 19 19 19 19 19 18 18 18 18 18 18 18 18 18 18 18 17 17 17 17 17 17 16 16 16 16 16 16 15 15 15 15 15 15
19 19 19 19 19 19 19 19 19 19 19 19 19 19 19 18 18 18 18 18 18 18 18 18 18 17 17 17 17 17 17 16 16 16 16 16 16 16 15 15 15 15 15
19 19 19 19 19 19 19 19 19 19 19 19 19 19 19 18 18 18 18 18 18 18 18 18 18 17 17 17 17 17 17 17 16 16 16 16 16 16 15 15 15 15 15
19 19 19 19 19 19 19 19 19 19 19 19 19 19 18 18 18 18 18 18 18 18 18 18 17 17 17 17 17 17 17 17 16 16 16 16 16 16 16 15 15 15 15
20 19 19 19 19 19 19 19 19 19 19 19 19 19 18 18 18 18 18 18 18 17 17 18 17 17 17 17 17 17 16 16 16 16 16 16 16 16 16 15 15 15 15
19 19 19 19 19 19 19 19 19 19 19 19 19 19 18 18 18 18 18 18 17 17 17 17 17 17 17 17 17 17 16 16 16 16 16 16 16 16 15 15 15 15 15
19 19 19 19 19 19 19 19 19 18 18 18 18 18 18 18 18 18 18 17 17 17 17 17 17 17 17 17 17 17 16 16 16 16 16 16 16 15 15 15 15 15 15
19 19 19 19 19 19 18 18 18 18 18 18 18 18 18 18 18 18 18 17 17 17 17 17 17 17 17 17 16 16 16 16 16 16 16 16 15 15 15 15 15 15 15
19 19 19 19 19 19 18 18 18 18 18 18 18 18 18 18 18 17 17 17 17 17 17 17 17 17 16 16 16 16 16 16 16 16 16 15 15 15 15 15 15 15 14
19 19 19 19 19 18 18 18 18 18 18 18 18 18 18 18 18 17 17 17 17 17 17 16 16 16 16 16 16 16 16 16 16 16 16 15 15 15 15 15 15 14 14
19 19 18 18 18 18 18 18 18 18 18 18 18 18 17 17 17 17 17 17 17 17 16 16 16 16 16 16 16 16 16 16 16 15 15 15 15 15 15 15 14 14 14
18 18 18 18 18 18 18 18 18 18 18 18 18 18 17 17 17 17 17 17 17 16 16 16 16 16 16 16 15 15 15 15 15 15 15 15 15 15 15 14 14 14 14
18 18 18 18 18 18 18 18 18 18 18 18 18 18 17 17 17 17 17 17 16 16 16 16 16 15 15 15 15 15 15 15 15 15 15 15 14 14 14 14 14 14 14
18 18 18 18 18 18 18 17 17 17 17 17 17 17 17 17 17 17 17 16 16 16 16 15 15 15 15 15 15 15 14 14 14 14 14 14 14 14 14 14 14 14 14
18 18 18 18 17 17 17 17 17 17 17 17 17 17 17 17 17 16 16 16 16 16 15 15 15 15 15 15 14 14 14 14 14 14 14 14 14 14 14 14 14 14 13
18 18 18 17 17 17 17 17 17 17 17 17 17 16 16 16 16 16 16 16 16 16 15 15 15 15 15 14 14 14 14 14 14 14 14 13 13 14 14 13 13 13 13
18 18 17 17 17 17 17 17 17 17 16 16 16 16 16 16 16 16 15 15 15 15 15 15 15 15 14 14 14 14 14 13 13 13 13 13 13 13 13 13 13 13 13
Wind_Speed
3 3 2 3 3 2 1 1 1 0 0 0 2 4 4 5 5 5 5 6 6 7 7 7 6 6 6 6 6 6 6 6 6 6 6 6 7 7 8 9 9 9 10
4 3 2 2 2 3 3 2 2 1 0 1 1 3 3 5 5 6 5 6 6 6 7 7 7 6 5 6 6 5 5 5 6 6 7 7 6 7 8 8 8 9 9
5 4 2 2 2 3 2 2 1 1 1 1 1 1 3 4 5 6 6 6 6 6 7 7 7 6 6 6 6 5 5 6 6 6 7 7 6 6 7 7 8 8 9
5 4 2 1 2 2 2 2 1 1 1 1 0 0 1 2 3 4 5 5 6 5 6 7 7 7 6 5 5 5 6 6 6 6 6 7 6 6 6 7 7 8 9
5 4 2 1 2 2 1 2 2 2 1 0 1 0 0 1 2 3 3 5 6 6 6 7 7 7 7 6 6 6 6 7 6 6 6 6 6 6 6 6 7 7 8
4 4 2 2 2 2 1 1 1 1 1 1 0 1 1 1 1 2 3 3 5 6 6 6 6 7 8 7 7 6 7 8 8 7 7 6 6 6 6 6 6 7 7
4 4 2 2 2 2 1 2 2 1 0 1 2 2 3 2 1 1 2 2 3 4 6 7 6 6 5 7 7 6 6 7 7 7 7 7 7 6 6 6 6 6 7
4 4 4 3 2 2 2 2 2 1 0 1 2 2 2 4 3 2 1 2 2 2 3 4 5 5 5 5 6 7 7 7 8 7 7 7 7 7 7 7 7 7 7
4 4 4 3 3 3 2 2 2 3 1 0 1 3 2 2 2 3 2 1 1 1 1 2 4 6 7 6 6 7 7 7 7 8 8 7 7 7 7 7 8 8 8
3 4 4 4 3 3 3 2 2 2 3 1 1 1 2 3 2 2 3 2 2 1 2 2 3 5 8 7 7 7 8 8 7 7 8 8 8 8 8 7 7 7 7
2 3 4 4 3 3 3 2 2 2 2 2 1 1 0 1 2 2 2 3 3 2 2 2 2 3 5 6 7 7 9 9 8 8 7 7 8 8 8 8 7 7 8
1 2 3 3 3 3 3 3 2 2 2 2 1 1 2 1 1 2 2 2 2 3 2 2 2 3 4 6 6 7 8 9 9 8 8 7 6 7 8 8 7 7 7
2 3 3 3 3 3 3 3 2 2 2 2 2 2 1 2 2 2 2 1 1 2 2 2 2 3 4 5 5 6 7 9 10 9 8 8 7 7 6 7 7 7 7
4 3 3 3 3 3 3 2 2 2 2 2 2 1 1 1 1 2 2 2 0 2 2 3 2 3 3 5 6 7 7 8 9 10 10 9 8 8 7 7 7 7 7
3 3 3 3 3 3 3 3 2 2 1 1 1 1 1 1 0 1 2 3 3 1 3 3 2 2 3 4 5 6 6 8 9 10 11 10 10 9 9 8 8 8 7
3 4 3 3 3 3 3 3 2 2 2 1 1 1 1 1 0 0 1 1 2 3 3 3 3 3 2 3 5 6 6 7 9 10 10 11 11 11 10 10 9 10 10
4 4 4 4 3 3 3 3 3 2 2 2 1 1 2 1 1 1 0 1 1 2 2 3 2 2 1 2 2 4 5 6 7 10 11 11 11 11 12 12 11 10 10
4 4 4 4 4 4 4 4 4 3 3 3 3 2 2 1 1 1 1 1 2 2 3 3 3 2 3 3 2 3 4 5 6 9 11 11 11 12 11 11 12 11 11
4 4 4 4 4 3 3 3 4 3 3 3 3 3 4 2 2 2 2 2 2 2 2 2 3 2 2 1 1 3 3 3 5 7 9 11 11 12 11 11 11 12 11
5 5 4 4 4 3 3 3 3 4 3 4 4 4 4 4 4 4 3 3 3 2 1 1 2 2 2 2 0 2 3 3 4 4 5 6 8 11 12 12 12 12 11
6 5 4 3 3 3 3 3 3 4 4 3 4 4 4 5 6 5 4 3 3 2 2 2 2 2 2 1 2 2 3 3 4 3 2 3 4 5 7 11 12 13 13
5 4 4 4 4 4 5 6 4 4 4 4 4 4 4 4 5 6 6 5 5 4 4 3 3 3 5 4 3 3 2 2 4 3 2 4 3 4 6 7 10 12 13
4 4 4 4 4 5 6 6 6 4 4 4 4 4 4 4 4 3 3 4 5 6 7 6 5 6 5 5 4 3 4 4 5 4 2 4 3 5 6 8 10 11 12
5 4 4 4 4 5 6 6 6 4 3 4 5 5 4 4 4 3 3 3 5 5 7 6 7 8 7 6 5 5 5 4 4 3 3 4 4 4 5 5 8 10 11
5 5 4 4 4 5 6 6 4 2 2 4 4 3 4 4 6 5 4 5 6 6 7 8 9 8 8 7 5 2 1 1 4 4 2 3 3 3 4 4 6 9 11
5 5 4 4 5 5 5 4 4 2 3 4 4 4 6 6 7 6 5 6 7 7 5 4 5 6 6 6 6 5 5 4 3 4 3 3 3 2 3 3 3 5 6
Wind_Direction
160 173 197 209 226 223 200 202 189 130 28 122 163 155 156 158 162 168 175 174 173 173 173 172 173 175 181 188 191 195 198 198 202 205 206 208 211 214 214 214 213 214 216
171 171 184 205 221 208 195 182 171 143 131 104 114 146 157 164 170 165 172 179 179 177 179 183 185 184 185 190 191 193 192 196 205 211 213 213 214 216 217 216 216 215 214
174 171 172 191 198 184 170 137 116 107 99 93 107 148 154 164 172 175 179 187 190 191 192 191 193 194 196 194 195 202 204 209 210 210 210 209 211 217 220 218 220 219 219
170 157 157 189 184 155 146 147 135 105 64 55 354 256 150 164 176 179 184 191 191 193 195 196 199 202 205 203 207 212 210 210 211 211 207 205 210 216 220 220 222 224 225
160 152 162 177 159 127 128 148 125 140 148 309 251 256 230 194 187 185 190 199 199 198 197 201 206 212 213 213 214 217 211 210 210 207 207 210 215 217 218 221 225 225 224
159 154 165 166 139 121 112 123 136 136 173 200 269 2 332 254 189 185 197 198 204 203 204 206 207 217 219 218 220 222 216 212 209 209 213 214 217 218 218 222 227 228 225
166 157 160 144 136 143 163 148 149 139 235 106 72 13 354 351 305 223 202 190 201 208 204 203 203 209 217 222 226 227 219 211 207 209 212 217 219 221 223 229 234 233 230
165 163 155 149 146 140 119 128 132 126 242 116 124 91 6 349 341 310 247 203 212 200 201 203 200 204 212 213 219 219 220 219 213 212 216 220 220 222 225 232 240 240 236
168 154 155 152 155 151 164 169 151 145 173 285 143 142 143 236 299 323 314 277 232 200 205 182 194 202 207 215 219 218 216 219 220 222 224 224 222 221 226 233 239 239 238
168 165 162 158 156 152 161 179 156 152 148 192 284 213 181 172 170 298 320 313 299 223 215 210 194 196 205 206 213 217 217 217 222 228 231 230 228 228 231 235 241 242 242
187 174 165 159 159 158 163 171 151 150 165 175 208 238 125 113 145 161 273 313 329 304 248 229 208 198 200 202 209 218 219 215 220 226 230 233 235 234 236 241 246 247 245
217 202 177 172 170 168 170 181 175 165 173 176 192 182 169 175 199 165 209 266 283 292 283 260 221 208 199 204 209 213 215 217 220 224 228 230 235 239 235 240 245 249 249
208 216 196 183 183 188 186 179 171 186 191 194 210 215 203 208 189 168 167 227 264 283 298 294 253 218 206 202 212 212 215 220 221 224 228 229 230 235 237 241 242 240 237
209 205 196 194 198 194 190 176 178 204 198 217 238 225 222 245 192 174 173 167 310 320 316 285 289 238 213 202 216 209 215 223 224 227 230 233 233 234 235 238 241 240 235
204 187 189 191 196 191 185 168 180 201 175 197 226 229 233 267 213 188 171 165 167 240 283 272 271 269 224 208 216 211 220 229 230 233 232 231 232 235 236 236 238 236 234
195 178 190 197 198 192 188 179 188 199 177 219 215 199 268 276 287 153 161 157 162 178 233 259 248 257 228 220 223 218 231 241 240 240 237 234 235 236 238 237 236 234 231
185 183 187 188 198 203 200 188 204 201 195 227 242 211 243 251 261 276 198 161 171 165 219 269 264 269 234 252 241 236 241 239 247 247 244 239 237 237 239 239 235 236 236
185 184 183 187 200 201 194 191 205 205 203 217 231 224 242 232 239 245 227 236 233 205 197 248 272 268 250 249 247 246 249 250 250 255 249 246 241 239 239 240 237 237 239
191 189 188 195 203 199 193 198 196 200 207 214 213 214 226 209 234 240 232 243 247 247 203 218 260 261 265 283 284 274 269 263 260 263 254 247 246 244 242 239 239 239 238
193 194 196 197 197 199 201 208 202 199 208 216 217 216 220 211 220 227 234 237 233 235 227 231 264 273 273 283 293 266 285 273 266 269 261 248 247 247 247 243 243 242 242
199 190 184 189 194 199 217 213 214 211 209 219 229 228 230 222 223 224 231 224 213 215 222 232 254 271 276 286 263 246 257 276 274 259 263 256 245 250 253 248 247 246 243
196 185 189 195 206 230 227 214 209 217 215 215 227 241 245 236 239 238 235 222 205 207 219 221 236 242 254 247 245 241 244 273 282 260 232 262 229 249 252 246 245 243 242
186 187 198 200 214 236 231 221 213 213 222 225 226 235 249 248 237 242 250 244 242 234 216 209 223 236 238 235 226 241 235 237 248 250 216 265 252 253 254 255 246 241 242
189 198 206 211 222 247 244 235 222 215 229 241 235 229 232 248 252 234 243 260 258 254 239 228 228 237 239 230 215 222 228 243 266 268 204 248 259 254 262 258 248 243 245
198 207 207 209 220 250 249 233 220 224 242 262 257 236 227 238 251 237 232 251 264 268 261 246 241 246 249 242 220 200 234 244 274 277 229 215 252 264 268 264 259 253 247
205 207 214 217 220 237 242 223 208 213 239 258 267 259 244 242 253 238 225 232 251 260 265 269 265 272 266 262 238 213 213 223 247 266 245 210 247 249 283 271 259 261 260
Height
1546 1547 1547 1548 1548 1549 1549 1549 1549 1549 1549 1548 1548 1548 1547 1547 1547 1547 1546 1546 1545 1544 1544 1543 1543 1543 1543 1543 1543 1543 1543 1544 1544 1545 1545 1546 1547 1547 1548 1549 1550 1551 1552
1546 1547 1548 1548 1549 1549 1549 1549 1549 1549 1549 1549 1548 1548 1548 1548 1547 1547 1547 1546 1546 1545 1544 1544 1543 1543 1543 1543 1543 1543 1543 1543 1543 1544 1544 1545 1545 1546 1547 1547 1548 1549 1550
1547 1548 1548 1549 1549 1549 1549 1549 1549 1549 1549 1549 1548 1548 1548 1548 1548 1547 1547 1546 1546 1545 1545 1544 1544 1543 1543 1543 1543 1542 1542 1542 1542 1542 1543 1543 1544 1545 1545 1546 1546 1547 1547
1547 1548 1548 1549 1549 1549 1549 1549 1549 1549 1549 1549 1549 1548 1548 1548 1548 1548 1547 1547 1546 1546 1545 1544 1544 1543 1543 1542 1542 1541 1540 1541 1541 1541 1542 1542 1543 1543 1543 1544 1544 1544 1545
1547 1548 1548 1549 1549 1549 1549 1549 1549 1549 1549 1549 1549 1549 1548 1548 1548 1547 1547 1547 1547 1546 1545 1545 1544 1543 1543 1542 1541 1540 1539 1539 1540 1540 1541 1541 1541 1541 1541 1542 1542 1542 1542
1547 1547 1548 1548 1549 1549 1549 1549 1549 1549 1549 1549 1549 1549 1548 1548 1547 1547 1547 1547 1546 1546 1546 1545 1544 1543 1542 1542 1541 1540 1539 1538 1539 1539 1539 1540 1540 1540 1540 1540 1540 1539 1539
1547 1547 1548 1548 1548 1549 1549 1549 1549 1549 1549 1549 1549 1548 1548 1548 1548 1547 1547 1546 1546 1545 1545 1544 1544 1543 1542 1541 1540 1539 1538 1538 1538 1538 1538 1538 1538 1538 1538 1538 1538 1537 1537
1547 1547 1547 1548 1548 1548 1548 1548 1549 1549 1549 1549 1548 1548 1548 1549 1547 1547 1547 1546 1546 1545 1545 1544 1543 1543 1542 1540 1540 1539 1538 1537 1537 1537 1537 1537 1536 1536 1536 1535 1535 1535 1535
1546 1547 1547 1547 1547 1548 1547 1548 1548 1548 1548 1548 1548 1549 1548 1547 1547 1547 1546 1546 1545 1544 1544 1543 1542 1542 1541 1540 1539 1538 1537 1537 1536 1536 1535 1535 1534 1534 1534 1533 1533 1532 1532
1545 1546 1546 1546 1546 1547 1547 1547 1547 1548 1548 1548 1548 1548 1548 1547 1547 1546 1546 1545 1545 1544 1543 1542 1541 1541 1540 1539 1538 1537 1537 1536 1536 1535 1534 1533 1533 1532 1531 1531 1530 1530 1530
1545 1545 1545 1545 1545 1546 1546 1546 1547 1547 1547 1547 1547 1547 1547 1546 1546 1546 1545 1544 1544 1543 1542 1541 1540 1539 1539 1538 1537 1536 1536 1535 1534 1533 1532 1531 1531 1530 1529 1529 1528 1527 1527
1543 1544 1544 1544 1544 1545 1545 1545 1546 1546 1546 1546 1546 1546 1546 1545 1545 1545 1544 1543 1542 1542 1541 1540 1539 1538 1538 1537 1536 1536 1535 1534 1533 1532 1531 1530 1529 1528 1527 1526 1525 1525 1524
1542 1542 1542 1543 1543 1543 1544 1544 1545 1545 1545 1545 1545 1545 1544 1544 1544 1544 1543 1542 1541 1540 1540 1539 1538 1538 1537 1536 1535 1534 1533 1532 1531 1530 1529 1528 1527 1526 1525 1524 1523 1522 1522
1540 1541 1541 1541 1542 1542 1543 1543 1543 1543 1543 1543 1543 1543 1543 1543 1543 1542 1541 1541 1539 1539 1538 1538 1537 1536 1535 1535 1534 1533 1532 1531 1529 1528 1527 1526 1525 1524 1523 1522 1521 1520 1520
1539 1539 1539 1540 1540 1541 1541 1541 1541 1541 1541 1542 1541 1541 1541 1541 1541 1540 1540 1539 1539 1537 1536 1536 1535 1534 1534 1533 1532 1531 1530 1529 1528 1527 1525 1524 1523 1522 1522 1520 1519 1518 1517
1537 1537 1537 1538 1538 1539 1539 1539 1539 1539 1540 1540 1540 1539 1539 1539 1539 1538 1538 1537 1537 1537 1535 1534 1533 1532 1532 1531 1530 1529 1528 1527 1526 1524 1523 1522 1521 1520 1519 1518 1517 1515 1514
1535 1535 1535 1536 1536 1536 1537 1537 1537 1537 1537 1537 1537 1537 1537 1537 1537 1536 1536 1535 1535 1534 1533 1532 1531 1530 1529 1528 1527 1527 1525 1524 1523 1522 1521 1520 1519 1517 1516 1515 1514 1512 1511
1533 1533 1533 1533 1534 1534 1534 1534 1534 1535 1535 1535 1535 1535 1535 1535 1534 1534 1534 1533 1532 1532 1531 1529 1528 1528 1527 1526 1525 1524 1523 1522 1520 1519 1518 1517 1516 1515 1513 1512 1511 1510 1509
1530 1530 1531 1531 1531 1531 1532 1532 1532 1532 1532 1532 1533 1532 1532 1532 1532 1531 1531 1530 1529 1529 1528 1527 1525 1525 1524 1523 1522 1521 1520 1519 1517 1516 1515 1514 1513 1512 1511 1509 1508 1507 1506
1527 1528 1528 1528 1529 1529 1529 1529 1529 1529 1529 1529 1529 1529 1529 1529 1528 1528 1527 1527 1526 1526 1525 1524 1523 1522 1521 1520 1519 1517 1516 1515 1514 1513 1512 1511 1510 1509 1508 1506 1505 1504 1503
1525 1525 1525 1525 1526 1526 1526 1526 1526 1526 1526 1525 1525 1525 1525 1525 1525 1524 1524 1523 1523 1522 1521 1520 1519 1518 1517 1516 1515 1514 1513 1511 1510 1509 1508 1507 1506 1505 1504 1502 1501 1501 1500
1522 1522 1522 1523 1523 1523 1523 1523 1523 1523 1523 1522 1522 1521 1522 1521 1521 1521 1520 1520 1519 1518 1517 1516 1515 1514 1513 1513 1512 1511 1509 1508 1506 1506 1504 1503 1502 1500 1499 1498 1497 1496 1496
1518 1519 1519 1519 1519 1520 1520 1520 1520 1520 1519 1518 1518 1518 1517 1517 1517 1516 1516 1515 1515 1514 1514 1513 1512 1510 1510 1509 1508 1507 1505 1504 1503 1502 1500 1498 1497 1496 1495 1494 1493 1492 1491
1515 1515 1515 1516 1516 1516 1516 1516 1516 1516 1515 1514 1514 1514 1513 1513 1512 1512 1512 1511 1510 1509 1509 1508 1507 1506 1506 1505 1504 1503 1501 1500 1499 1498 1496 1494 1492 1491 1490 1489 1488 1487 1486
1511 1512 1512 1512 1512 1512 1512 1512 1512 1511 1511 1511 1510 1510 1509 1509 1508 1508 1508 1507 1505 1505 1505 1504 1503 1502 1501 1500 1499 1498 1497 1495 1493 1492 1492 1490 1488 1487 1485 1484 1484 1483 1482
1508 1509 1509 1509 1509 1509 1509 1509 1508 1508 1507 1506 1506 1505 1505 1504 1504 1504 1503 1502 1501 1500 1500 1499 1498 1497 1496 1495 1494 1493 1492 1490 1488 1487 1486 1486 1484 1482 1480 1479 1479 1478 1477